883  
ASUS43 KLMK 190810  
RWRKY  
KENTUCKY REGIONAL WEATHER ROUNDUP  
NATIONAL WEATHER SERVICE LOUISVILLE KY  
400 AM EDT THU SEP 19 2019  
 
NOTE "FAIR" INDICATES FEW OR NO CLOUDS BELOW 12,000 FEET  
WITH NO SIGNIFICANT WEATHER AND/OR S TO VISIBILITY
.  
 
KYZ001>023-026-027-061>063-070>075-190900-  
WESTERN AND SOUTH CENTRAL KENTUCKY  
 
CITY SKY/WX TMP DP RH WIND PRES REMARKS
 
PADUCAH FAIR 64 61 90 CALM 30.01S  
HENDERSON FAIR 60 59 96 CALM 30.03F  
OWENSBORO FAIR 67 63 87 CALM 30.03S  
HOPKINSVILLE FAIR 66 62 85 CALM 30.02S  
BOWLING GREEN FAIR 66 62 87 CALM 30.03S  
GLASGOW FAIR 60 58 92 CALM 30.04S  

 
 
KYZ024-025-028>034-038-045-046-053-190900-  
NORTH CENTRAL KENTUCKY  
 
CITY SKY/WX TMP DP RH WIND PRES REMARKS
 
LOUISVILLE/SDF FAIR 73 56 54 VRB5 30.04S  
LOUISVILLE/LOU FAIR 71 55 56 CALM 30.05R  
FORT KNOX FAIR 68 61 77 NE3 30.05S  

 
 
KYZ035>037-039>044-047>052-055>060-089>105-190900-  
NORTHEAST KENTUCKY  
 
CITY SKY/WX TMP DP RH WIND PRES REMARKS
 
LEXINGTON FAIR 71 56 58 E6 30.07S  
COVINGTON MOCLDY 67 50 54 E7 30.08F  
FRANKFORT FAIR 68 56 65 E5 30.06R  

 
 
KYZ054-064>069-076>088-106>120-190900-  
SOUTHEAST KENTUCKY  
 
CITY SKY/WX TMP DP RH WIND PRES REMARKS
 
JACKSON FAIR 68 61 78 SE5 30.11S  
LONDON FAIR 69 61 75 SE5 30.10R  
SOMERSET FAIR 68 61 77 CALM 30.09R  
MIDDLESBORO FAIR 67 61 79 W3 30.14S  
MONTICELLO FAIR 72 67 84 E7 30.09R  

 
 
 
 
CLICK HERE TO GO TO PREVIOUS BULLETINS.

The Nexlab KY Page Main Text Page